User: anonymous   Login
Location: Newark
(45.4422°N, 16.2769°E)
Time: 06:31:34
(UTC+00:00)
Language:

Vanguard 3 - Orbit

View from above orbital plane
View from above orbital plane
View from above satellite
View from above satellite

Ground track
Ground track

The orbit data is extracted from the following two-line orbital elements,

1    20U 59007A   19339.49765594  .00000021  00000-0 -23537-6 0  9997
2    20  33.3486 156.5748 1667400 312.5578  34.5557 11.55690852208070
Epoch (UTC): 05 December 2019 11:56:37
Eccentricity: 0.1667400
inclination: 33.3486°
perigee height: 507 km
apogee height: 3263 km
right ascension of ascending node: 156.5748°
argument of perigee: 312.5578°
revolutions per day: 11.55690852
mean anomaly at epoch: 34.5557°
orbit number at epoch: 20807

The dashed part of the orbit path shows where the satellite is in the earth's shadow,  

DLR